TimeMDT,TemperatureF,Dew PointF,Humidity,Sea Level PressureIn,VisibilityMPH,Wind Direction,Wind SpeedMPH,Gust SpeedMPH,PrecipitationIn,Events,Conditions,WindDirDegrees,DateUTC
12:09 AM,33.8,33.8,100,30.12,7.0,Calm,Calm,-,N/A,Thunderstorm,Thunderstorm,0,2013-10-14 06:09:00
12:28 AM,33.8,32.0,93,30.10,1.2,WSW,3.5,-,N/A,Snow-Thunderstorm,Light Thunderstorms and Snow,250,2013-10-14 06:28:00
12:49 AM,32.0,32.0,100,30.10,0.2,SW,4.6,-,N/A,Snow-Thunderstorm,Snow,230,2013-10-14 06:49:00
1:08 AM,32.0,32.0,100,30.09,2.0,SSW,3.5,-,N/A,Snow-Thunderstorm,Light Thunderstorms and Snow,210,2013-10-14 07:08:00
1:29 AM,32.0,32.0,100,30.09,2.0,Calm,Calm,-,N/A,,Overcast,0,2013-10-14 07:29:00
1:49 AM,32.0,32.0,100,30.09,5.0,Calm,Calm,-,N/A,,Overcast,0,2013-10-14 07:49:00
2:09 AM,32.0,32.0,100,30.09,5.0,Calm,Calm,-,N/A,Thunderstorm,Overcast,0,2013-10-14 08:09:00
2:29 AM,32.0,32.0,100,30.08,2.0,Calm,Calm,-,N/A,Snow-Thunderstorm,Light Thunderstorms and Snow,0,2013-10-14 08:29:00
2:49 AM,32.0,32.0,100,30.05,0.5,Calm,Calm,-,N/A,Snow-Thunderstorm,Thunderstorms and Snow,0,2013-10-14 08:49:00
3:09 AM,32.0,32.0,100,30.06,2.0,Calm,Calm,-,N/A,Snow-Thunderstorm,Light Thunderstorms and Snow,0,2013-10-14 09:09:00
3:29 AM,32.0,32.0,100,30.05,0.5,Calm,Calm,-,N/A,Snow-Thunderstorm,Heavy Thunderstorms and Snow,0,2013-10-14 09:29:00
3:49 AM,30.2,30.2,100,30.04,0.5,Calm,Calm,-,N/A,Snow-Thunderstorm,Heavy Thunderstorms and Snow,0,2013-10-14 09:49:00
4:09 AM,30.2,30.2,100,30.05,0.2,Calm,Calm,-,N/A,Snow,Heavy Snow,0,2013-10-14 10:09:00
4:29 AM,30.2,28.4,93,30.04,0.2,SSW,3.5,-,N/A,Snow,Heavy Snow,210,2013-10-14 10:29:00
4:49 AM,30.2,28.4,93,30.03,1.5,Calm,Calm,-,N/A,Snow,Light Snow,0,2013-10-14 10:49:00
5:09 AM,28.4,28.4,100,30.06,10.0,SSW,3.5,-,N/A,,Overcast,200,2013-10-14 11:09:00
5:29 AM,30.2,28.4,93,30.05,10.0,SW,3.5,-,N/A,,Overcast,220,2013-10-14 11:29:00
5:49 AM,30.2,28.4,93,30.07,10.0,Calm,Calm,-,N/A,,Overcast,0,2013-10-14 11:49:00
6:09 AM,30.2,28.4,93,30.07,3.0,SSW,3.5,-,N/A,Snow,Light Snow,200,2013-10-14 12:09:00
6:29 AM,30.2,28.4,93,30.06,5.0,SSW,3.5,-,N/A,,Overcast,210,2013-10-14 12:29:00
6:49 AM,30.2,28.4,93,30.06,10.0,SW,3.5,-,N/A,,Overcast,220,2013-10-14 12:49:00
7:09 AM,30.2,28.4,93,30.06,0.5,Calm,Calm,-,N/A,Snow,Light Snow,0,2013-10-14 13:09:00
7:29 AM,30.2,28.4,93,30.06,0.5,SSW,3.5,-,N/A,Snow,Light Snow,210,2013-10-14 13:29:00
7:48 AM,30.2,28.4,93,30.06,1.2,SW,4.6,-,N/A,Snow,Light Snow,220,2013-10-14 13:48:00
8:09 AM,28.4,28.4,100,30.07,1.0,SW,4.6,-,N/A,Snow-Thunderstorm,Light Thunderstorms and Snow,230,2013-10-14 14:09:00
8:29 AM,28.4,28.4,100,30.08,0.5,Calm,Calm,-,N/A,Snow,Light Snow,0,2013-10-14 14:29:00
8:48 AM,28.4,28.4,100,30.09,5.0,Calm,Calm,-,N/A,,Overcast,0,2013-10-14 14:48:00
9:08 AM,28.4,28.4,100,30.09,2.5,Calm,Calm,-,N/A,Snow,Light Snow,0,2013-10-14 15:08:00
9:29 AM,30.2,28.4,93,30.11,7.0,Calm,Calm,-,N/A,,Overcast,0,2013-10-14 15:29:00
9:49 AM,30.2,28.4,93,30.11,7.0,Calm,Calm,-,N/A,,Overcast,0,2013-10-14 15:49:00
10:09 AM,30.2,28.4,93,30.11,5.0,SW,3.5,-,N/A,,Overcast,220,2013-10-14 16:09:00
10:28 AM,30.2,30.2,100,30.12,7.0,Calm,Calm,-,N/A,,Overcast,0,2013-10-14 16:28:00
10:49 AM,30.2,30.2,100,30.13,7.0,Calm,Calm,-,N/A,,Overcast,0,2013-10-14 16:49:00
11:08 AM,32.0,30.2,93,30.13,5.0,Calm,Calm,-,N/A,,Overcast,0,2013-10-14 17:08:00
11:28 AM,32.0,30.2,93,30.13,1.2,Calm,Calm,-,N/A,Snow,Light Snow,0,2013-10-14 17:28:00
11:48 AM,32.0,30.2,93,30.13,0.5,Calm,Calm,-,N/A,Snow,Light Snow,0,2013-10-14 17:48:00
12:08 PM,30.2,30.2,100,30.13,0.2,Calm,Calm,-,N/A,Snow,Heavy Snow,0,2013-10-14 18:08:00
12:29 PM,30.2,30.2,100,30.14,0.5,Calm,Calm,-,N/A,Snow,Light Snow,0,2013-10-14 18:29:00
12:48 PM,32.0,30.2,93,30.14,0.2,Calm,Calm,-,N/A,Snow,Light Snow,0,2013-10-14 18:48:00
1:09 PM,32.0,30.2,93,30.15,0.2,Calm,Calm,-,N/A,Snow,Snow,0,2013-10-14 19:09:00
1:29 PM,30.2,30.2,100,30.15,0.2,WSW,3.5,-,N/A,Snow,Snow,250,2013-10-14 19:29:00
1:49 PM,30.2,28.4,93,30.16,0.2,WNW,4.6,-,N/A,Snow,Snow,290,2013-10-14 19:49:00
2:09 PM,30.2,28.4,93,30.16,0.2,West,8.1,-,N/A,Snow,Snow,280,2013-10-14 20:09:00
2:29 PM,28.4,28.4,100,30.16,0.2,Calm,Calm,-,N/A,Snow,Snow,0,2013-10-14 20:29:00
2:48 PM,30.2,28.4,93,30.17,0.2,West,3.5,-,N/A,Snow,Light Snow,260,2013-10-14 20:48:00
3:09 PM,30.2,28.4,93,30.18,0.2,Calm,Calm,-,N/A,Snow,Light Snow,0,2013-10-14 21:09:00
3:29 PM,30.2,28.4,93,30.18,0.2,SW,3.5,-,N/A,Snow,Light Snow,220,2013-10-14 21:29:00
3:49 PM,30.2,28.4,93,30.18,0.2,Calm,Calm,-,N/A,Fog,Light Freezing Fog,0,2013-10-14 21:49:00
4:08 PM,30.2,28.4,93,30.19,0.5,Calm,Calm,-,N/A,Fog,Light Freezing Fog,0,2013-10-14 22:08:00
4:29 PM,28.4,28.4,100,30.20,0.2,Calm,Calm,-,N/A,Fog,Light Freezing Fog,0,2013-10-14 22:29:00
4:49 PM,30.2,28.4,93,30.20,0.2,Calm,Calm,-,N/A,Fog,Light Freezing Fog,0,2013-10-14 22:49:00
5:08 PM,28.4,28.4,100,30.21,0.2,SW,3.5,-,N/A,Snow,Light Snow,230,2013-10-14 23:08:00
5:28 PM,28.4,28.4,100,30.21,0.2,Calm,Calm,-,N/A,Fog,Light Freezing Fog,0,2013-10-14 23:28:00
5:49 PM,28.4,28.4,100,30.22,0.2,Calm,Calm,-,N/A,Fog,Light Freezing Fog,0,2013-10-14 23:49:00
6:09 PM,28.4,28.4,100,30.22,0.2,Calm,Calm,-,N/A,Fog,Light Freezing Fog,0,2013-10-15 00:09:00
6:28 PM,28.4,28.4,100,30.23,0.2,Calm,Calm,-,N/A,Snow,Light Snow,0,2013-10-15 00:28:00
6:48 PM,28.4,28.4,100,30.24,1.0,Calm,Calm,-,N/A,Snow,Light Snow,0,2013-10-15 00:48:00
7:09 PM,28.4,26.6,93,30.24,0.5,NW,3.5,-,N/A,Fog,Light Freezing Fog,310,2013-10-15 01:09:00
7:29 PM,28.4,26.6,93,30.24,0.5,NW,3.5,-,N/A,Snow,Light Snow,320,2013-10-15 01:29:00
7:49 PM,-9999,-9999,N/A,30.25,0.5,Calm,Calm,-,N/A,,Unknown,0,2013-10-15 01:49:00
8:09 PM,-9999,-9999,N/A,30.24,4.0,WNW,3.5,-,N/A,,Unknown,290,2013-10-15 02:09:00
8:29 PM,-9999,-9999,N/A,30.25,1.0,Calm,Calm,-,N/A,,Unknown,0,2013-10-15 02:29:00
8:49 PM,-9999,-9999,N/A,30.25,1.2,Calm,Calm,-,N/A,,Overcast,0,2013-10-15 02:49:00
9:09 PM,-9999,-9999,N/A,30.25,0.5,Calm,Calm,-,N/A,Fog,Fog,0,2013-10-15 03:09:00
9:29 PM,-9999,-9999,N/A,30.25,1.2,Calm,Calm,-,N/A,,Overcast,0,2013-10-15 03:29:00
9:49 PM,-9999,-9999,N/A,30.25,10.0,Calm,Calm,-,N/A,,Overcast,0,2013-10-15 03:49:00
10:09 PM,-9999,-9999,N/A,30.26,1.8,Calm,Calm,-,N/A,,Overcast,0,2013-10-15 04:09:00
10:29 PM,-9999,-9999,N/A,30.25,0.2,Calm,Calm,-,N/A,Fog,Fog,0,2013-10-15 04:29:00
10:49 PM,-9999,-9999,N/A,30.25,1.0,Calm,Calm,-,N/A,,Unknown,0,2013-10-15 04:49:00
11:09 PM,-9999,-9999,N/A,30.25,0.8,Calm,Calm,-,N/A,,Unknown,0,2013-10-15 05:09:00
11:29 PM,-9999,-9999,N/A,30.25,1.0,Calm,Calm,-,N/A,,Unknown,0,2013-10-15 05:29:00
11:49 PM,-9999,-9999,N/A,30.24,1.2,Calm,Calm,-,N/A,,Unknown,0,2013-10-15 05:49:00